FW9451 Weather Reports


Display with metric or nautical units.
time (UTC)temp
F
wind
direction
speed
MPH
gust
MPH
rain 1hr
in
rain 24hr
in
rain mn
in
humidity
%
barometer
mb
20260502194602 46 0 2.0 4.0 0.00 0.05 0.05 89 1011.8
20260502193052 46 36 1.0 4.0 0.00 0.05 0.05 89 1011.8
20260502191551 46 88 2.0 4.0 0.00 0.05 0.05 89 1012.0
20260502190057 46 0 0.0 3.0 0.00 0.05 0.05 89 1012.2
20260502184556 46 175 0.0 3.0 0.00 0.05 0.05 89 1012.4
20260502183105 45 0 0.0 4.0 0.00 0.05 0.05 90 1012.5
20260502181551 46 0 0.0 6.0 0.00 0.05 0.05 90 1012.6
20260502163053 43 107 2.0 7.0 0.00 0.05 0.05 90 1012.7
20260502161549 43 65 1.0 8.0 0.00 0.05 0.05 89 1012.8
20260502151600 44 121 2.0 7.0 0.01 0.05 0.05 89 1012.8
20260502123051 41 65 1.0 6.0 0.02 0.02 0.02 86 1013.8
20260502121551 41 98 1.0 5.0 0.02 0.02 0.02 85 1014.1
20260502114605 42 25 1.0 9.0 0.00 0.00 0.00 79 1014.2
20260502113050 43 75 0.0 4.0 0.00 0.00 0.00 78 1014.1
20260502111556 42 0 0.0 3.0 0.00 0.00 0.00 76 1014.0
20260502110050 42 0 0.0 3.0 0.00 0.00 0.00 75 1013.9
20260502104551 42 76 0.0 5.0 0.00 0.00 0.00 74 1013.9
20260502103050 42 144 0.0 3.0 0.00 0.00 0.00 71 1013.8
20260502101618 42 116 1.0 4.0 0.00 0.00 0.00 70 1013.1
20260502090113 42 107 1.0 4.0 0.00 0.00 0.00 61 1012.8
20260502070058 44 0 0.0 0.0 0.00 0.00 0.00 51 1013.1
20260502064551 44 0 0.0 0.0 0.00 0.00 0.00 52 1012.8
20260502063057 44 0 0.0 0.0 0.00 0.00 0.00 52 1012.7
20260502061551 44 0 0.0 2.0 0.00 0.00 0.00 51 1012.6
20260502060049 44 66 0.0 3.0 0.00 0.00 0.00 51 1012.7
20260502054556 44 0 0.0 2.0 0.00 0.00 0.00 50 1012.7
20260502053056 44 0 1.0 4.0 0.00 0.00 0.00 49 1012.5
20260502051620 45 66 1.0 3.0 0.00 0.00 0.00 48 1012.6
20260502050056 45 55 1.0 4.0 0.00 0.00 0.00 48 1012.5
20260502044553 46 48 2.0 5.0 0.00 0.00 0.00 47 1012.4
20260502043057 46 59 2.0 5.0 0.00 0.00 0.00 46 1012.5
20260502041548 46 59 3.0 6.0 0.00 0.00 0.00 45 1012.4
20260502040057 47 58 3.0 7.0 0.00 0.00 0.00 44 1012.4
20260502034551 47 51 3.0 7.0 0.00 0.00 0.00 43 1012.3
20260502033049 47 30 3.0 7.0 0.00 0.00 0.00 43 1012.4
20260502031548 48 51 3.0 6.0 0.00 0.00 0.00 42 1012.2
20260502030050 48 53 2.0 5.0 0.00 0.00 0.00 42 1012.3
20260502024546 48 44 3.0 6.0 0.00 0.00 0.00 41 1012.3
20260502023120 48 50 3.0 5.0 0.00 0.00 0.00 40 1012.3
20260502021550 49 51 1.0 5.0 0.00 0.00 0.00 39 1012.3
20260502020105 49 5 1.0 6.0 0.00 0.00 0.00 39 1012.3
20260502014551 49 40 1.0 4.0 0.00 0.00 0.00 39 1012.3
20260502013100 49 42 2.0 4.0 0.00 0.00 0.00 39 1012.1
20260502011552 50 344 2.0 7.0 0.00 0.00 0.00 38 1011.9
20260502010047 50 333 1.0 6.0 0.00 0.00 0.00 38 1011.7
20260502004608 50 331 3.0 9.0 0.00 0.00 0.00 38 1011.6
20260502003053 51 326 2.0 6.0 0.00 0.00 0.00 38 1011.5
20260502001606 51 326 1.0 6.0 0.00 0.00 0.00 38 1011.3
20260502000057 52 259 2.0 7.0 0.00 0.00 0.00 38 1011.0
20260501234559 52 290 4.0 9.0 0.00 0.00 0.00 37 1010.8
20260501233056 53 324 3.0 12.0 0.00 0.00 0.00 36 1010.3
20260501231548 54 310 3.0 11.0 0.00 0.00 0.00 37 1010.3
20260501230052 55 304 5.0 17.0 0.00 0.00 0.00 36 1009.9
20260501224550 55 329 5.0 15.0 0.00 0.00 0.00 35 1009.7
20260501223052 56 342 7.0 16.0 0.00 0.00 0.00 35 1009.6
20260501221550 57 258 3.0 12.0 0.00 0.00 0.00 34 1009.3
20260501220134 58 350 5.0 14.0 0.00 0.00 0.00 35 1009.1
20260501214548 57 286 4.0 15.0 0.00 0.00 0.00 37 1009.0
20260501213100 57 248 7.0 13.0 0.00 0.00 0.00 37 1008.8
20260501211551 58 281 6.0 19.0 0.00 0.00 0.00 36 1008.6
20260501210110 57 194 10.0 20.0 0.00 0.00 0.00 36 1008.6
20260501204554 58 277 10.0 18.0 0.00 0.03 0.00 37 1008.5
20260501203053 57 229 7.0 18.0 0.00 0.03 0.00 41 1008.2
20260501201555 58 260 7.0 15.0 0.00 0.03 0.00 43 1008.2
20260501200047 58 301 8.0 19.0 0.00 0.03 0.00 43 1008.2